Time,TemperatureF,DewpointF,PressureIn,WindDirection,WindDirectionDegrees,WindSpeedMPH,WindSpeedGustMPH,Humidity,HourlyPrecipIn,Conditions,Clouds,dailyrainin,SoftwareType,DateUTC
2013-04-07 00:02:00,40.0,30.0,29.79,East,80,10.0,-999.0,67,-99.99,,,-99.99,,2013-04-07 06:02:00,
2013-04-07 00:12:00,40.0,30.0,29.78,East,86,13.0,-999.0,67,-99.99,,,-99.99,,2013-04-07 06:12:00,
2013-04-07 00:22:00,39.0,30.0,29.78,East,83,10.0,-999.0,69,-99.99,,,-99.99,,2013-04-07 06:22:00,
2013-04-07 00:32:00,38.0,30.0,29.79,East,86,12.0,-999.0,72,-99.99,,,-99.99,,2013-04-07 06:32:00,
2013-04-07 00:42:00,39.0,30.0,29.76,East,94,12.0,-999.0,70,-99.99,,,-99.99,,2013-04-07 06:42:00,
2013-04-07 00:52:00,39.0,30.0,29.77,East,99,15.0,-999.0,70,-99.99,,,-99.99,,2013-04-07 06:52:00,
2013-04-07 01:02:00,39.0,30.0,29.78,ESE,106,14.0,-999.0,70,-99.99,,,-99.99,,2013-04-07 07:02:00,
2013-04-07 01:12:00,40.0,31.0,29.78,East,98,14.0,-999.0,68,-99.99,,,-99.99,,2013-04-07 07:12:00,
2013-04-07 01:22:00,39.0,30.0,29.77,ENE,59,7.0,-999.0,69,-99.99,,,-99.99,,2013-04-07 07:22:00,
2013-04-07 01:32:00,35.0,30.0,29.78,ENE,76,9.0,-999.0,80,-99.99,,,-99.99,,2013-04-07 07:32:00,
2013-04-07 01:42:00,34.0,29.0,29.77,ENE,60,12.0,-999.0,81,-99.99,,,-99.99,,2013-04-07 07:42:00,
2013-04-07 01:52:00,34.0,29.0,29.77,ENE,60,12.0,-999.0,81,-99.99,,,-99.99,,2013-04-07 07:52:00,
2013-04-07 02:02:00,35.0,30.0,29.77,ENE,76,13.0,-999.0,80,-99.99,,,-99.99,,2013-04-07 08:02:00,
2013-04-07 02:12:00,35.0,30.0,29.77,East,88,9.0,-999.0,80,-99.99,,,-99.99,,2013-04-07 08:12:00,
2013-04-07 02:22:00,35.0,30.0,29.77,East,80,11.0,-999.0,81,-99.99,,,-99.99,,2013-04-07 08:22:00,
2013-04-07 02:32:00,35.0,30.0,29.73,East,83,11.0,-999.0,82,-99.99,,,-99.99,,2013-04-07 08:32:00,
2013-04-07 02:42:00,35.0,30.0,29.74,East,88,12.0,-999.0,83,-99.99,,,-99.99,,2013-04-07 08:42:00,
2013-04-07 02:52:00,34.0,30.0,29.76,ENE,74,13.0,-999.0,84,-99.99,,,-99.99,,2013-04-07 08:52:00,
2013-04-07 03:02:00,34.0,30.0,29.75,ENE,72,11.0,-999.0,86,-99.99,,,-99.99,,2013-04-07 09:02:00,
2013-04-07 03:12:00,33.0,30.0,29.74,ENE,62,11.0,-999.0,88,-99.99,,,-99.99,,2013-04-07 09:12:00,
2013-04-07 03:22:00,33.0,30.0,29.74,East,79,12.0,-999.0,89,-99.99,,,-99.99,,2013-04-07 09:22:00,
2013-04-07 03:33:00,33.0,30.0,29.73,ENE,70,8.0,-999.0,90,-99.99,,,-99.99,,2013-04-07 09:33:00,
2013-04-07 03:43:00,33.0,30.0,29.76,ENE,65,9.0,-999.0,91,-99.99,,,-99.99,,2013-04-07 09:43:00,
2013-04-07 03:53:00,32.0,30.0,29.75,ENE,71,9.0,-999.0,92,-99.99,,,-99.99,,2013-04-07 09:53:00,
2013-04-07 04:04:00,32.0,30.0,29.73,ENE,70,10.0,-999.0,92,-99.99,,,-99.99,,2013-04-07 10:04:00,
2013-04-07 04:13:00,32.0,30.0,29.72,ENE,64,10.0,-999.0,93,-99.99,,,-99.99,,2013-04-07 10:13:00,
2013-04-07 04:23:00,32.0,30.0,29.72,ENE,61,8.0,-999.0,94,-99.99,,,-99.99,,2013-04-07 10:23:00,
2013-04-07 04:33:00,31.0,29.0,29.73,ENE,59,8.0,-999.0,94,-99.99,,,-99.99,,2013-04-07 10:33:00,
2013-04-07 04:43:00,30.0,29.0,29.73,NE,48,9.0,-999.0,95,-99.99,,,-99.99,,2013-04-07 10:43:00,
2013-04-07 04:53:00,30.0,29.0,29.72,ENE,59,9.0,-999.0,96,-99.99,,,-99.99,,2013-04-07 10:53:00,
2013-04-07 05:03:00,30.0,29.0,29.70,ENE,58,10.0,-999.0,96,-99.99,,,-99.99,,2013-04-07 11:03:00,
2013-04-07 05:12:00,30.0,29.0,29.71,ENE,66,11.0,-999.0,97,-99.99,,,-99.99,,2013-04-07 11:12:00,
2013-04-07 05:22:00,30.0,29.0,29.72,ENE,58,10.0,-999.0,97,-99.99,,,-99.99,,2013-04-07 11:22:00,
2013-04-07 05:33:00,30.0,29.0,29.71,ENE,58,9.0,-999.0,98,-99.99,,,-99.99,,2013-04-07 11:33:00,
2013-04-07 05:42:00,30.0,30.0,29.71,ENE,62,11.0,-999.0,98,-99.99,,,-99.99,,2013-04-07 11:42:00,
2013-04-07 05:52:00,30.0,30.0,29.72,ENE,57,12.0,-999.0,98,-99.99,,,-99.99,,2013-04-07 11:52:00,
2013-04-07 06:02:00,30.0,30.0,29.69,NE,49,13.0,-999.0,98,-99.99,,,-99.99,,2013-04-07 12:02:00,
2013-04-07 06:12:00,30.0,30.0,29.72,NE,50,17.0,-999.0,98,-99.99,,,-99.99,,2013-04-07 12:12:00,
2013-04-07 06:23:00,30.0,30.0,29.71,NE,49,14.0,-999.0,98,-99.99,,,-99.99,,2013-04-07 12:23:00,
2013-04-07 06:34:00,30.0,30.0,29.70,NE,51,13.0,-999.0,98,-99.99,,,-99.99,,2013-04-07 12:34:00,
2013-04-07 06:43:00,29.0,29.0,29.72,NE,55,12.0,-999.0,98,-99.99,,,-99.99,,2013-04-07 12:43:00,
2013-04-07 06:53:00,30.0,29.0,29.71,NE,56,11.0,-999.0,98,-99.99,,,-99.99,,2013-04-07 12:53:00,
2013-04-07 07:03:00,30.0,30.0,29.71,ENE,61,13.0,-999.0,98,-99.99,,,-99.99,,2013-04-07 13:03:00,
2013-04-07 07:13:00,30.0,30.0,29.72,NE,55,14.0,-999.0,98,-99.99,,,-99.99,,2013-04-07 13:13:00,
2013-04-07 07:22:00,30.0,29.0,29.71,ENE,71,13.0,-999.0,98,-99.99,,,-99.99,,2013-04-07 13:22:00,
2013-04-07 07:32:00,30.0,30.0,29.71,ENE,62,13.0,-999.0,98,-99.99,,,-99.99,,2013-04-07 13:32:00,
2013-04-07 07:42:00,31.0,30.0,29.70,ENE,58,16.0,-999.0,98,-99.99,,,-99.99,,2013-04-07 13:42:00,
2013-04-07 07:52:00,30.0,30.0,29.72,NE,40,14.0,-999.0,98,-99.99,,,-99.99,,2013-04-07 13:52:00,
2013-04-07 08:02:00,30.0,30.0,29.72,NE,44,15.0,-999.0,98,-99.99,,,-99.99,,2013-04-07 14:02:00,
2013-04-07 08:12:00,30.0,30.0,29.71,NE,54,14.0,-999.0,98,-99.99,,,-99.99,,2013-04-07 14:12:00,
2013-04-07 08:23:00,30.0,30.0,29.70,NE,45,13.0,-999.0,98,-99.99,,,-99.99,,2013-04-07 14:23:00,
2013-04-07 08:33:00,30.0,30.0,29.73,NE,47,10.0,-999.0,98,-99.99,,,-99.99,,2013-04-07 14:33:00,
2013-04-07 08:43:00,30.0,30.0,29.72,NNE,21,12.0,-999.0,98,-99.99,,,-99.99,,2013-04-07 14:43:00,
2013-04-07 08:53:00,30.0,30.0,29.72,NNE,15,13.0,-999.0,98,-99.99,,,-99.99,,2013-04-07 14:53:00,
2013-04-07 09:03:00,30.0,30.0,29.72,NNE,14,13.0,-999.0,98,-99.99,,,-99.99,,2013-04-07 15:03:00,
2013-04-07 09:13:00,30.0,30.0,29.74,North,9,10.0,-999.0,98,-99.99,,,-99.99,,2013-04-07 15:13:00,
2013-04-07 09:22:00,29.0,29.0,29.74,NNE,28,10.0,-999.0,98,-99.99,,,-99.99,,2013-04-07 15:22:00,
2013-04-07 09:34:00,29.0,29.0,29.74,NNE,28,10.0,-999.0,98,-99.99,,,-99.99,,2013-04-07 15:34:00,
2013-04-07 09:45:00,30.0,29.0,29.70,NE,42,17.0,-999.0,98,-99.99,,,-99.99,,2013-04-07 15:45:00,
2013-04-07 09:55:00,30.0,30.0,29.70,NE,51,19.0,-999.0,98,-99.99,,,-99.99,,2013-04-07 15:55:00,
2013-04-07 10:04:00,31.0,30.0,29.74,NNE,29,13.0,-999.0,98,-99.99,,,-99.99,,2013-04-07 16:04:00,
2013-04-07 10:13:00,31.0,31.0,29.73,ENE,77,15.0,-999.0,98,-99.99,,,-99.99,,2013-04-07 16:13:00,
2013-04-07 10:24:00,32.0,31.0,29.70,ENE,67,16.0,-999.0,98,-99.99,,,-99.99,,2013-04-07 16:24:00,
2013-04-07 10:33:00,33.0,32.0,29.71,East,84,17.0,-999.0,98,-99.99,,,-99.99,,2013-04-07 16:33:00,
2013-04-07 10:43:00,33.0,32.0,29.69,ENE,69,12.0,-999.0,98,-99.99,,,-99.99,,2013-04-07 16:43:00,
2013-04-07 10:53:00,34.0,33.0,29.71,East,82,13.0,-999.0,98,-99.99,,,-99.99,,2013-04-07 16:53:00,
2013-04-07 11:04:00,34.0,33.0,29.70,East,81,15.0,-999.0,98,-99.99,,,-99.99,,2013-04-07 17:04:00,
2013-04-07 11:13:00,34.0,33.0,29.70,East,82,15.0,-999.0,98,-99.99,,,-99.99,,2013-04-07 17:13:00,
2013-04-07 11:23:00,34.0,33.0,29.72,East,83,8.0,-999.0,98,-99.99,,,-99.99,,2013-04-07 17:23:00,
2013-04-07 11:33:00,34.0,34.0,29.71,ENE,69,8.0,-999.0,98,-99.99,,,-99.99,,2013-04-07 17:33:00,
2013-04-07 11:43:00,34.0,33.0,29.71,East,80,7.0,-999.0,98,-99.99,,,-99.99,,2013-04-07 17:43:00,
2013-04-07 11:52:00,35.0,35.0,29.69,NE,44,4.0,-999.0,98,-99.99,,,-99.99,,2013-04-07 17:52:00,
2013-04-07 12:02:00,35.0,35.0,29.69,NE,44,4.0,-999.0,98,-99.99,,,-99.99,,2013-04-07 18:02:00,
2013-04-07 12:13:00,36.0,35.0,29.70,NNE,20,1.0,-999.0,98,-99.99,,,-99.99,,2013-04-07 18:13:00,
2013-04-07 12:23:00,36.0,36.0,29.69,North,0,0.0,-999.0,98,-99.99,,,-99.99,,2013-04-07 18:23:00,
2013-04-07 12:33:00,38.0,37.0,29.69,ESE,109,6.0,-999.0,98,-99.99,,,-99.99,,2013-04-07 18:33:00,
2013-04-07 12:43:00,39.0,38.0,29.66,SE,128,5.0,-999.0,98,-99.99,,,-99.99,,2013-04-07 18:43:00,
2013-04-07 12:52:00,40.0,39.0,29.67,ESE,113,3.0,-999.0,98,-99.99,,,-99.99,,2013-04-07 18:52:00,
2013-04-07 13:02:00,40.0,39.0,29.67,ESE,113,3.0,-999.0,98,-99.99,,,-99.99,,2013-04-07 19:02:00,
2013-04-07 13:12:00,42.0,41.0,29.66,East,100,5.0,-999.0,98,-99.99,,,-99.99,,2013-04-07 19:12:00,
2013-04-07 13:22:00,43.0,35.0,29.66,East,100,6.0,-999.0,73,-99.99,,,-99.99,,2013-04-07 19:22:00,
2013-04-07 13:32:00,45.0,36.0,29.66,SE,131,3.0,-999.0,70,-99.99,,,-99.99,,2013-04-07 19:32:00,
2013-04-07 13:42:00,46.0,34.0,29.65,SSW,192,0.0,-999.0,64,-99.99,,,-99.99,,2013-04-07 19:42:00,
2013-04-07 13:53:00,47.0,34.0,29.67,ESE,121,4.0,-999.0,62,-99.99,,,-99.99,,2013-04-07 19:53:00,
2013-04-07 14:03:00,48.0,35.0,29.63,NE,55,2.0,-999.0,60,-99.99,,,-99.99,,2013-04-07 20:03:00,
2013-04-07 14:13:00,49.0,35.0,29.65,ESE,115,3.0,-999.0,59,-99.99,,,-99.99,,2013-04-07 20:13:00,
2013-04-07 14:22:00,50.0,35.0,29.64,NE,46,6.0,-999.0,56,-99.99,,,-99.99,,2013-04-07 20:22:00,
2013-04-07 14:33:00,50.0,35.0,29.63,ENE,71,7.0,-999.0,56,-99.99,,,-99.99,,2013-04-07 20:33:00,
2013-04-07 14:43:00,52.0,36.0,29.63,ESE,102,7.0,-999.0,53,-99.99,,,-99.99,,2013-04-07 20:43:00,
2013-04-07 14:52:00,52.0,35.0,29.61,NE,55,10.0,-999.0,53,-99.99,,,-99.99,,2013-04-07 20:52:00,
2013-04-07 15:03:00,52.0,35.0,29.63,NE,50,11.0,-999.0,52,-99.99,,,-99.99,,2013-04-07 21:03:00,
2013-04-07 15:13:00,52.0,35.0,29.62,ENE,76,9.0,-999.0,51,-99.99,,,-99.99,,2013-04-07 21:13:00,
2013-04-07 15:22:00,53.0,35.0,29.62,ENE,66,13.0,-999.0,50,-99.99,,,-99.99,,2013-04-07 21:22:00,
2013-04-07 15:34:00,54.0,34.0,29.62,East,82,8.0,-999.0,46,-99.99,,,-99.99,,2013-04-07 21:34:00,
2013-04-07 15:43:00,55.0,34.0,29.61,East,88,9.0,-999.0,46,-99.99,,,-99.99,,2013-04-07 21:43:00,
2013-04-07 15:53:00,54.0,34.0,29.61,East,79,8.0,-999.0,47,-99.99,,,-99.99,,2013-04-07 21:53:00,
2013-04-07 16:04:00,55.0,33.0,29.62,NE,51,10.0,-999.0,43,-99.99,,,-99.99,,2013-04-07 22:04:00,
2013-04-07 16:14:00,55.0,33.0,29.61,East,83,9.0,-999.0,44,-99.99,,,-99.99,,2013-04-07 22:14:00,
2013-04-07 16:23:00,55.0,33.0,29.61,NE,53,1.0,-999.0,42,-99.99,,,-99.99,,2013-04-07 22:23:00,
2013-04-07 16:34:00,55.0,32.0,29.61,ENE,63,14.0,-999.0,42,-99.99,,,-99.99,,2013-04-07 22:34:00,
2013-04-07 16:43:00,55.0,33.0,29.59,ENE,76,6.0,-999.0,44,-99.99,,,-99.99,,2013-04-07 22:43:00,
2013-04-07 16:53:00,56.0,33.0,29.59,NE,53,12.0,-999.0,41,-99.99,,,-99.99,,2013-04-07 22:53:00,
2013-04-07 17:03:00,55.0,33.0,29.59,NE,55,9.0,-999.0,42,-99.99,,,-99.99,,2013-04-07 23:03:00,
2013-04-07 17:13:00,55.0,32.0,29.58,ENE,57,10.0,-999.0,41,-99.99,,,-99.99,,2013-04-07 23:13:00,
2013-04-07 17:22:00,55.0,32.0,29.59,ENE,59,13.0,-999.0,41,-99.99,,,-99.99,,2013-04-07 23:22:00,
2013-04-07 17:32:00,56.0,32.0,29.58,ENE,62,11.0,-999.0,40,-99.99,,,-99.99,,2013-04-07 23:32:00,
2013-04-07 17:43:00,55.0,31.0,29.60,East,101,4.0,-999.0,40,-99.99,,,-99.99,,2013-04-07 23:43:00,
2013-04-07 17:52:00,56.0,32.0,29.58,East,84,9.0,-999.0,40,-99.99,,,-99.99,,2013-04-07 23:52:00,
2013-04-07 18:02:00,56.0,32.0,29.58,East,84,9.0,-999.0,40,-99.99,,,-99.99,,2013-04-08 00:02:00,
2013-04-07 18:12:00,56.0,32.0,29.58,East,81,9.0,-999.0,40,-99.99,,,-99.99,,2013-04-08 00:12:00,
2013-04-07 18:22:00,55.0,32.0,29.58,East,91,5.0,-999.0,42,-99.99,,,-99.99,,2013-04-08 00:22:00,
2013-04-07 18:32:00,56.0,32.0,29.58,East,92,8.0,-999.0,41,-99.99,,,-99.99,,2013-04-08 00:32:00,
2013-04-07 18:42:00,56.0,32.0,29.57,ENE,76,7.0,-999.0,40,-99.99,,,-99.99,,2013-04-08 00:42:00,
2013-04-07 18:52:00,54.0,33.0,29.58,East,91,12.0,-999.0,44,-99.99,,,-99.99,,2013-04-08 00:52:00,
2013-04-07 19:03:00,54.0,33.0,29.58,ENE,67,10.0,-999.0,45,-99.99,,,-99.99,,2013-04-08 01:03:00,
2013-04-07 19:12:00,53.0,33.0,29.59,ENE,75,8.0,-999.0,46,-99.99,,,-99.99,,2013-04-08 01:12:00,
2013-04-07 19:22:00,52.0,33.0,29.58,ENE,75,9.0,-999.0,48,-99.99,,,-99.99,,2013-04-08 01:22:00,
2013-04-07 19:33:00,51.0,33.0,29.58,East,87,10.0,-999.0,51,-99.99,,,-99.99,,2013-04-08 01:33:00,
2013-04-07 19:43:00,50.0,33.0,29.57,East,89,8.0,-999.0,51,-99.99,,,-99.99,,2013-04-08 01:43:00,
2013-04-07 20:03:00,49.0,34.0,29.59,ESE,115,10.0,-999.0,55,-99.99,,,-99.99,,2013-04-08 02:03:00,
2013-04-07 20:12:00,49.0,34.0,29.59,ESE,104,7.0,-999.0,56,-99.99,,,-99.99,,2013-04-08 02:12:00,
2013-04-07 20:22:00,48.0,34.0,29.59,East,101,9.0,-999.0,58,-99.99,,,-99.99,,2013-04-08 02:22:00,
2013-04-07 20:33:00,47.0,34.0,29.56,ESE,105,9.0,-999.0,59,-99.99,,,-99.99,,2013-04-08 02:33:00,
2013-04-07 20:47:00,46.0,34.0,29.60,ESE,115,10.0,-999.0,61,-99.99,,,-99.99,,2013-04-08 02:47:00,
2013-04-07 20:53:00,45.0,33.0,29.59,ESE,102,11.0,-999.0,61,-99.99,,,-99.99,,2013-04-08 02:53:00,
2013-04-07 21:08:00,46.0,33.0,29.60,East,98,11.0,-999.0,60,-99.99,,,-99.99,,2013-04-08 03:08:00,
2013-04-07 21:15:00,48.0,32.0,29.59,East,89,9.0,-999.0,55,-99.99,,,-99.99,,2013-04-08 03:15:00,
2013-04-07 21:24:00,45.0,33.0,29.58,NE,52,6.0,-999.0,62,-99.99,,,-99.99,,2013-04-08 03:24:00,
2013-04-07 21:47:00,43.0,33.0,29.58,NE,55,8.0,-999.0,68,-99.99,,,-99.99,,2013-04-08 03:47:00,
2013-04-07 21:53:00,43.0,33.0,29.59,ENE,62,9.0,-999.0,69,-99.99,,,-99.99,,2013-04-08 03:53:00,
2013-04-07 22:03:00,42.0,33.0,29.60,NNE,15,10.0,-999.0,70,-99.99,,,-99.99,,2013-04-08 04:03:00,
2013-04-07 22:12:00,42.0,33.0,29.61,South,173,11.0,-999.0,72,-99.99,,,-99.99,,2013-04-08 04:12:00,
2013-04-07 22:23:00,42.0,33.0,29.60,North,11,12.0,-999.0,70,-99.99,,,-99.99,,2013-04-08 04:23:00,
2013-04-07 22:33:00,42.0,33.0,29.62,NNE,33,10.0,-999.0,71,-99.99,,,-99.99,,2013-04-08 04:33:00,
2013-04-07 22:44:00,42.0,33.0,29.62,NE,37,10.0,-999.0,70,-99.99,,,-99.99,,2013-04-08 04:44:00,
2013-04-07 22:52:00,42.0,32.0,29.62,NE,46,9.0,-999.0,69,-99.99,,,-99.99,,2013-04-08 04:52:00,
2013-04-07 23:02:00,42.0,33.0,29.63,NNE,25,7.0,-999.0,69,-99.99,,,-99.99,,2013-04-08 05:02:00,
2013-04-07 23:12:00,42.0,33.0,29.62,NNE,18,8.0,-999.0,69,-99.99,,,-99.99,,2013-04-08 05:12:00,
2013-04-07 23:22:00,42.0,33.0,29.62,NNE,18,8.0,-999.0,69,-99.99,,,-99.99,,2013-04-08 05:22:00,
2013-04-07 23:32:00,43.0,33.0,29.61,ENE,63,11.0,-999.0,67,-99.99,,,-99.99,,2013-04-08 05:32:00,
2013-04-07 23:42:00,43.0,34.0,29.58,East,92,19.0,-999.0,72,-99.99,,,-99.99,,2013-04-08 05:42:00,
2013-04-07 23:52:00,42.0,36.0,29.57,ENE,71,14.0,-999.0,77,-99.99,,,-99.99,,2013-04-08 05:52:00,